Poughkeepsie, NY

7:50 AM EDT on June 26, 2017 (GMT -0400)
Dutchess County

Weather History for KPOU - December, 2013

Change the Weather History Date:

Tuesday, December 24, 2013

  Actual Average Record
Temperature  
Mean Temperature 30 °F 28 °F  
Max Temperature 37 °F 37 °F 72 °F (2015)
Min Temperature 23 °F 19 °F -14 °F (1989)
Degree Days  
Heating Degree Days 35 37  
Month to date heating degree days 777 786  
Since 1 July heating degree days 2020 2064  
Cooling Degree Days 0 0  
Month to date cooling degree days 0 0  
Year to date cooling degree days 829 672  
Moisture  
Dew Point 22 °F    
Average Humidity 71    
Maximum Humidity 93    
Minimum Humidity 48    
Precipitation  
Precipitation 0.01 in 0.12 in 1.51 in (2003)
Month to date precipitation 2.49 2.80  
Year to date precipitation 39.07 45.80  
Sea Level Pressure  
Sea Level Pressure 30.19 in    
Wind  
Wind Speed 6 mph (NNW)    
Max Wind Speed 14 mph    
Max Gust Speed 23 mph    
Visibility 8 miles    
Events Fog , Snow    
T = Trace of Precipitation, MM = Missing Value Source: NWS Daily Summary

Daily Weather History Graph

Daily Weather History Graph

Search for Another Location

Airport or City:

Trip Planner

Search our weather history database for the weather conditions in past years. The results will help you decide how hot, cold, wet, or windy it might be!

Date:

Astronomy

Dec. 24, 2013 Rise Set
Actual Time 7:20 AM EST 4:30 PM EST
Civil Twilight 6:48 AM EST 5:01 PM EST
Nautical Twilight 6:13 AM EST 5:36 PM EST
Astronomical Twilight 5:40 AM EST 6:10 PM EST
Moon 11:41 PM EST (12/24) 11:08 AM EST (12/24)
Length of Visible Light 10h 12m
Length of Day
9h 09m
Waning Gibbous, 59% of the Moon is Illuminated
Dec 24
Waning Gibbous
Dec 25
Last Quarter
Jan 1
New
Jan 7
First Quarter
Jan 15
Full

Hourly Weather History & Observations

Time (EST) Temp. Windchill Dew Point Humidity Pressure Visibility Wind Dir Wind Speed Gust Speed Precip Events Conditions
12:53 AM 36.0 °F 33.3 °F 28.9 °F 76% 30.15 in 10.0 mi NNW 3.5 mph - N/A   Overcast
1:53 AM 36.0 °F 33.3 °F 28.9 °F 76% 30.16 in 10.0 mi WNW 3.5 mph - N/A   Partly Cloudy
2:53 AM 34.0 °F 28.8 °F 26.1 °F 73% 30.16 in 10.0 mi NNW 5.8 mph - N/A   Clear
3:53 AM 33.1 °F 26.9 °F 25.0 °F 72% 30.16 in 10.0 mi NNW 6.9 mph - N/A   Clear
4:53 AM 32.0 °F 27.5 °F 24.1 °F 73% 30.16 in 10.0 mi North 4.6 mph - N/A   Clear
5:53 AM 30.9 °F 23.5 °F 23.0 °F 72% 30.16 in 10.0 mi North 8.1 mph - N/A   Clear
6:53 AM 30.0 °F 22.4 °F 21.0 °F 69% 30.16 in 10.0 mi North 8.1 mph - N/A   Clear
7:53 AM 28.9 °F 21.9 °F 19.9 °F 69% 30.15 in 10.0 mi NE 6.9 mph - N/A   Clear
8:53 AM 30.9 °F 27.5 °F 19.9 °F 64% 30.18 in 10.0 mi Variable 3.5 mph - N/A   Clear
9:53 AM 33.1 °F 28.7 °F 21.0 °F 61% 30.17 in 10.0 mi NNE 4.6 mph - N/A   Clear
10:53 AM 35.1 °F 31.0 °F 21.9 °F 59% 30.16 in 10.0 mi Variable 4.6 mph - N/A   Clear
11:53 AM 35.1 °F 29.3 °F 19.9 °F 54% 30.12 in 10.0 mi NNW 6.9 mph - N/A   Mostly Cloudy
12:53 PM 37.0 °F 31.6 °F 21.0 °F 52% 30.10 in 10.0 mi North 6.9 mph - N/A   Mostly Cloudy
1:53 PM 35.1 °F 29.3 °F 21.0 °F 57% 30.10 in 10.0 mi NW 6.9 mph - N/A   Overcast
2:53 PM 34.0 °F 27.2 °F 21.0 °F 59% 30.12 in 10.0 mi NW 8.1 mph - N/A   Overcast
3:53 PM 32.0 °F 27.5 °F 23.0 °F 69% 30.14 in 10.0 mi NW 4.6 mph - N/A   Overcast
4:00 PM 32.0 °F 27.5 °F 23.0 °F 69% 30.14 in 10.0 mi NW 4.6 mph - N/A   Overcast
4:53 PM 30.9 °F - 24.1 °F 76% 30.15 in 10.0 mi Calm Calm - N/A   Overcast
5:53 PM 30.9 °F - 24.1 °F 76% 30.17 in 10.0 mi Calm Calm - N/A   Mostly Cloudy
6:36 PM 30.2 °F 22.6 °F 23.0 °F 75% 30.19 in 10.0 mi North 8.1 mph - N/A   Overcast
6:44 PM 30.2 °F 20.2 °F 21.2 °F 69% 30.20 in 1.8 mi North 12.7 mph 17.3 mph 0.00 in Snow Light Snow
6:51 PM 28.4 °F 17.5 °F 24.8 °F 86% 30.21 in 0.8 mi North 13.8 mph 20.7 mph 0.00 in Snow Light Snow
6:53 PM 28.9 °F 19.2 °F 24.1 °F 82% 30.22 in 0.5 mi NNE 11.5 mph 20.7 mph 0.00 in Snow Snow
7:01 PM 28.4 °F 18.0 °F 24.8 °F 86% 30.22 in 0.2 mi NNE 12.7 mph 18.4 mph 0.00 in Fog , Snow Heavy Snow
7:22 PM 26.6 °F 22.6 °F 24.8 °F 93% 30.23 in 0.5 mi Variable 3.5 mph - 0.01 in Fog , Snow Light Snow
7:25 PM 26.6 °F 21.2 °F 24.8 °F 93% 30.24 in 1.2 mi North 4.6 mph - 0.01 in Snow Light Snow
7:30 PM 28.4 °F 24.6 °F 24.8 °F 86% 30.24 in 3.0 mi North 3.5 mph - 0.01 in Snow Light Snow
7:51 PM 28.4 °F - 23.0 °F 80% 30.25 in 5.0 mi Calm Calm - 0.01 in Snow Light Snow
7:53 PM 28.0 °F - 23.0 °F 81% 30.25 in 5.0 mi Calm Calm - 0.01 in Snow Light Snow
8:53 PM 27.0 °F 21.6 °F 21.9 °F 81% 30.27 in 10.0 mi SW 4.6 mph - 0.00 in   Overcast
9:53 PM 26.1 °F 17.6 °F 10.0 °F 51% 30.29 in 10.0 mi West 8.1 mph - N/A   Partly Cloudy
10:53 PM 25.0 °F 14.2 °F 8.1 °F 49% 30.31 in 10.0 mi West 11.5 mph - N/A   Clear
11:53 PM 23.0 °F 11.1 °F 6.1 °F 48% 30.32 in 10.0 mi West 12.7 mph 23.0 mph N/A   Clear